Weather History for Santa Maria, CA

Change the Weather History Date:

Wednesday, November 2, 2011

  Actual Average Record
Temperature  
Mean Temperature 62 °F 58 °F  
Max Temperature 79 °F 71 °F 92 °F (1966)
Min Temperature 45 °F 46 °F 30 °F (1922)
Degree Days  
Heating Degree Days 3 7  
Month to date heating degree days 7 14  
Since 1 July heating degree days 254 378  
Cooling Degree Days 0 0  
Month to date cooling degree days 0 0  
Year to date cooling degree days 106 100  
Growing Degree Days 12 (Base 50)    
Moisture  
Dew Point 42 °F    
Average Humidity 52    
Maximum Humidity 77    
Minimum Humidity 26    
Precipitation  
Precipitation 0.00 in 0.03 in 0.20 in (1957)
Month to date precipitation 0.00 0.07  
Year to date precipitation 11.81 10.57  
Since 1 July precipitation 0.84 0.86  
Sea Level Pressure  
Sea Level Pressure 30.04 in    
Wind  
Wind Speed 4 mph (SE)    
Max Wind Speed 17 mph    
Max Gust Speed 22 mph    
Visibility 10 miles    
Events      
T = Trace of Precipitation, MM = Missing Value Source: NWS Daily Summary

Daily Weather History Graph

Daily Weather History Graph

Search for Another Location

Airport:

Trip Planner

Search our weather history database for the weather conditions in past years. The results will help you decide how hot, cold, wet, or windy it might be!

Date:

Astronomy

Nov. 02, 2011 Rise Set
Actual Time 7:23 AM PDT 6:06 PM PDT
Civil Twilight 6:57 AM PDT 6:32 PM PDT
Nautical Twilight 6:27 AM PDT 7:02 PM PDT
Astronomical Twilight 5:57 AM PDT 7:32 PM PDT
Moon 1:46 PM PDT (11/2) No Moon Set
Length of Visible Light 11h 35m
Length of Day
10h 43m
Waxing Crescent, 51% of the Moon is Illuminated
Nov 2
Waxing Crescent
Nov 10
Full
Nov 18
Last Quarter
Nov 24
New
Dec 2
First Quarter

Hourly Weather History & Observations

Time (PDT) Temp. Dew Point Humidity Pressure Visibility Wind Dir Wind Speed Gust Speed Precip Events Conditions
12:51 AM 52.0 °F 43.0 °F 71% 29.99 in 10.0 mi SSE 4.6 mph - N/A   Clear
1:51 AM 52.0 °F 42.1 °F 69% 29.99 in 10.0 mi ESE 3.5 mph - N/A   Clear
2:51 AM 51.1 °F 41.0 °F 68% 30.00 in 10.0 mi SSE 5.8 mph - N/A   Clear
3:51 AM 50.0 °F 41.0 °F 71% 30.01 in 10.0 mi Calm Calm - N/A   Clear
4:51 AM 48.9 °F 39.9 °F 71% 30.02 in 10.0 mi SSE 3.5 mph - N/A   Clear
5:51 AM 48.0 °F 39.9 °F 74% 30.03 in 10.0 mi ESE 3.5 mph - N/A   Clear
6:51 AM 46.9 °F 39.0 °F 74% 30.04 in 10.0 mi Calm Calm - N/A   Clear
7:51 AM 46.9 °F 39.9 °F 77% 30.06 in 10.0 mi South 4.6 mph - N/A   Clear
8:51 AM 55.0 °F 43.0 °F 64% 30.09 in 10.0 mi Calm Calm - N/A   Clear
9:51 AM 64.0 °F 39.9 °F 41% 30.10 in 10.0 mi Calm Calm - N/A   Clear
10:51 AM 69.1 °F 37.9 °F 32% 30.09 in 10.0 mi Calm Calm - N/A   Clear
11:51 AM 73.9 °F 39.0 °F 28% 30.08 in 10.0 mi Calm Calm - N/A   Clear
12:51 PM 77.0 °F 39.9 °F 26% 30.06 in 10.0 mi Variable 3.5 mph - N/A   Clear
1:51 PM 75.0 °F 44.1 °F 33% 30.04 in 10.0 mi NW 11.5 mph - N/A   Clear
2:51 PM 73.0 °F 39.0 °F 29% 30.04 in 10.0 mi NW 12.7 mph 21.9 mph N/A   Clear
3:51 PM 72.0 °F 39.0 °F 30% 30.04 in 10.0 mi NW 10.4 mph - N/A   Clear
4:51 PM 70.0 °F 44.1 °F 39% 30.05 in 10.0 mi NNW 5.8 mph - N/A   Clear
5:51 PM 64.0 °F 48.0 °F 56% 30.05 in 10.0 mi NW 4.6 mph - N/A   Clear
6:51 PM 60.1 °F 50.0 °F 69% 30.05 in 10.0 mi WNW 3.5 mph - N/A   Clear
7:51 PM 55.9 °F 48.0 °F 75% 30.06 in 10.0 mi South 3.5 mph - N/A   Clear
8:51 PM 53.1 °F 43.0 °F 69% 30.05 in 10.0 mi East 4.6 mph - N/A   Clear
9:51 PM 51.1 °F 39.0 °F 63% 30.05 in 10.0 mi SSE 5.8 mph - N/A   Clear
10:51 PM 48.9 °F 37.9 °F 66% 30.04 in 10.0 mi East 3.5 mph - N/A   Clear
11:51 PM 50.0 °F 39.0 °F 66% 30.04 in 10.0 mi East 3.5 mph - N/A   Clear